When you browse on this site, cookies collect data to enhance your experience and personalize the content and advertising you see.
Visit our Privacy Policy to learn more. By continuing to use the site, you agree to this use of cookies and data.
  • în România
  • Lista ţărilor
  • Pe 7 zile
  • Temperatura apei
  • Meteo pe hartă
  • Widget-uri
  • user-avatar
    Intrare

    Meteo pe oră la Vatican

    Astăzi, 6 Decembrie, Vineri

    Timp Temperatura Precipitaţii Vânt Presiune Umiditate
    00:00 +12°C° 0 mm 4 m/s 765 mmHg 61%
    01:00 +12°C° 0 mm 4 m/s 765 mmHg 61%
    02:00 +12°C° 0 mm 4 m/s 765 mmHg 62%
    03:00 +12°C° 0 mm 4 m/s 765 mmHg 64%
    04:00 +12°C° 0 mm 4 m/s 764 mmHg 65%
    05:00 +11°C° 0.1 mm 4 m/s 764 mmHg 67%
    06:00 +11°C° 0.1 mm 4 m/s 765 mmHg 68%
    07:00 +11°C° 0 mm 4 m/s 765 mmHg 68%
    08:00 +12°C° 0.1 mm 4 m/s 765 mmHg 67%
    09:00 +13°C° 0.1 mm 4 m/s 765 mmHg 66%
    10:00 +14°C° 0.1 mm 3 m/s 765 mmHg 65%
    11:00 +14°C° 0.1 mm 3 m/s 764 mmHg 65%
    12:00 +16°C° 0.1 mm 3 m/s 764 mmHg 66%
    13:00 +17°C° 0.1 mm 3 m/s 764 mmHg 67%
    14:00 +17°C° 0.2 mm 3 m/s 764 mmHg 69%
    15:00 +17°C° 0.2 mm 3 m/s 763 mmHg 72%
    16:00 +16°C° 0.2 mm 3 m/s 763 mmHg 75%
    17:00 +16°C° 0.4 mm 3 m/s 763 mmHg 77%
    18:00 +15°C° 0.4 mm 2 m/s 763 mmHg 79%
    19:00 +15°C° 0.4 mm 2 m/s 764 mmHg 80%
    20:00 +15°C° 0.5 mm 2 m/s 764 mmHg 81%
    21:00 +15°C° 0.5 mm 2 m/s 764 mmHg 81%
    22:00 +15°C° 0.5 mm 2 m/s 764 mmHg 81%
    23:00 +14°C° 0.3 mm 2 m/s 764 mmHg 82%

    Mâine, 7 Decembrie, Sâmbătă

    Timp Temperatura Precipitaţii Vânt Presiune Umiditate
    00:00 +14°C° 0.3 mm 2 m/s 764 mmHg 83%
    01:00 +14°C° 0.3 mm 2 m/s 763 mmHg 84%
    02:00 +14°C° 0.2 mm 2 m/s 763 mmHg 84%
    03:00 +14°C° 0.2 mm 2 m/s 763 mmHg 84%
    04:00 +13°C° 0.2 mm 3 m/s 762 mmHg 84%
    05:00 +13°C° 0.2 mm 3 m/s 763 mmHg 83%
    06:00 +13°C° 0.2 mm 3 m/s 763 mmHg 82%
    07:00 +14°C° 0.2 mm 3 m/s 763 mmHg 81%
    08:00 +14°C° 0.2 mm 3 m/s 763 mmHg 80%
    09:00 +15°C° 0.2 mm 4 m/s 763 mmHg 79%
    10:00 +15°C° 0.2 mm 4 m/s 763 mmHg 78%
    11:00 +15°C° 0.2 mm 5 m/s 763 mmHg 77%
    12:00 +16°C° 0.2 mm 5 m/s 763 mmHg 77%
    13:00 +16°C° 0.2 mm 6 m/s 762 mmHg 76%
    14:00 +16°C° 0.1 mm 6 m/s 762 mmHg 77%
    15:00 +15°C° 0.1 mm 6 m/s 762 mmHg 77%
    16:00 +15°C° 0.1 mm 6 m/s 762 mmHg 77%
    17:00 +15°C° 0.1 mm 6 m/s 762 mmHg 77%
    18:00 +15°C° 0.1 mm 6 m/s 762 mmHg 77%
    19:00 +15°C° 0.1 mm 6 m/s 763 mmHg 77%
    20:00 +15°C° 0.1 mm 6 m/s 763 mmHg 77%
    21:00 +15°C° 0.1 mm 6 m/s 763 mmHg 76%
    22:00 +15°C° 0.1 mm 6 m/s 763 mmHg 76%
    23:00 +15°C° 0.1 mm 6 m/s 763 mmHg 78%

    Poimâine, 8 Decembrie, Duminică

    Timp Temperatura Precipitaţii Vânt Presiune Umiditate
    00:00 +14°C° 0.1 mm 6 m/s 763 mmHg 80%
    01:00 +14°C° 0.1 mm 6 m/s 763 mmHg 82%
    02:00 +14°C° 0.1 mm 5 m/s 763 mmHg 82%
    03:00 +14°C° 0.1 mm 5 m/s 762 mmHg 82%
    04:00 +13°C° 0.1 mm 4 m/s 762 mmHg 83%
    05:00 +13°C° 0.1 mm 4 m/s 762 mmHg 81%
    06:00 +14°C° 0.1 mm 4 m/s 762 mmHg 80%
    07:00 +14°C° 0.1 mm 4 m/s 763 mmHg 79%
    08:00 +14°C° 0.1 mm 5 m/s 763 mmHg 77%
    09:00 +15°C° 0.1 mm 6 m/s 763 mmHg 75%
    10:00 +15°C° 0.1 mm 6 m/s 763 mmHg 73%
    11:00 +15°C° 0.1 mm 6 m/s 763 mmHg 73%
    12:00 +15°C° 0.1 mm 6 m/s 763 mmHg 73%
    13:00 +16°C° 0.1 mm 6 m/s 762 mmHg 72%
    14:00 +15°C° 0.1 mm 6 m/s 762 mmHg 72%
    15:00 +15°C° 0.1 mm 5 m/s 762 mmHg 73%
    16:00 +15°C° 0.1 mm 5 m/s 762 mmHg 73%
    17:00 +15°C° 0.1 mm 5 m/s 762 mmHg 74%
    18:00 +14°C° 0.1 mm 5 m/s 762 mmHg 75%
    19:00 +14°C° 0.1 mm 5 m/s 762 mmHg 76%
    20:00 +14°C° 0.1 mm 5 m/s 762 mmHg 76%
    21:00 +14°C° 0.1 mm 5 m/s 762 mmHg 76%
    22:00 +14°C° 0.1 mm 5 m/s 762 mmHg 76%
    23:00 +14°C° 0.1 mm 6 m/s 761 mmHg 75%

    9 Decembrie, Luni

    Timp Temperatura Precipitaţii Vânt Presiune Umiditate
    00:00 +14°C° 0.1 mm 6 m/s 761 mmHg 75%
    01:00 +14°C° 0.1 mm 7 m/s 761 mmHg 74%
    02:00 +14°C° 0.2 mm 7 m/s 760 mmHg 76%
    03:00 +13°C° 0.2 mm 8 m/s 760 mmHg 78%
    04:00 +13°C° 0.2 mm 8 m/s 759 mmHg 80%
    05:00 +13°C° 0.2 mm 8 m/s 759 mmHg 80%
    06:00 +13°C° 0.2 mm 8 m/s 759 mmHg 80%
    07:00 +13°C° 0.2 mm 8 m/s 758 mmHg 80%
    08:00 +15°C° 0.3 mm 9 m/s 758 mmHg 80%
    09:00 +14°C° 0.3 mm 10 m/s 758 mmHg 80%
    10:00 +14°C° 0.3 mm 11 m/s 757 mmHg 80%
    11:00 +15°C° 0.1 mm 12 m/s 757 mmHg 71%
    12:00 +15°C° 0.1 mm 13 m/s 756 mmHg 62%
    13:00 +17°C° 0.1 mm 14 m/s 756 mmHg 52%
    14:00 +15°C° 0 mm 13 m/s 756 mmHg 53%
    15:00 +16°C° 0 mm 11 m/s 755 mmHg 54%
    16:00 +14°C° 0 mm 10 m/s 755 mmHg 54%
    17:00 +15°C° 0 mm 9 m/s 755 mmHg 54%
    18:00 +13°C° 0 mm 8 m/s 755 mmHg 54%
    19:00 +14°C° 0 mm 7 m/s 755 mmHg 54%
    20:00 +12°C° 0.2 mm 7 m/s 755 mmHg 57%
    21:00 +12°C° 0.2 mm 8 m/s 755 mmHg 61%
    22:00 +11°C° 0.2 mm 8 m/s 755 mmHg 65%
    23:00 +11°C° 0.5 mm 6 m/s 754 mmHg 63%

    10 Decembrie, Marţi

    Timp Temperatura Precipitaţii Vânt Presiune Umiditate
    00:00 +12°C° 0.5 mm 5 m/s 754 mmHg 61%
    01:00 +13°C° 0.5 mm 4 m/s 754 mmHg 60%
    02:00 +12°C° 0.4 mm 4 m/s 754 mmHg 63%
    03:00 +12°C° 0.4 mm 4 m/s 754 mmHg 66%
    04:00 +12°C° 0.4 mm 4 m/s 753 mmHg 70%
    05:00 +10°C° 0.5 mm 5 m/s 754 mmHg 72%
    06:00 +9°C° 0.5 mm 6 m/s 754 mmHg 74%
    07:00 +9°C° 0.5 mm 6 m/s 754 mmHg 76%
    08:00 +9°C° 0 mm 6 m/s 755 mmHg 74%
    09:00 +10°C° 0 mm 5 m/s 755 mmHg 72%
    10:00 +10°C° 0 mm 5 m/s 755 mmHg 69%
    11:00 +11°C° 0 mm 6 m/s 755 mmHg 64%
    12:00 +12°C° 0 mm 7 m/s 755 mmHg 59%
    13:00 +13°C° 0 mm 8 m/s 755 mmHg 53%
    14:00 +12°C° 0 mm 8 m/s 756 mmHg 53%
    15:00 +12°C° 0 mm 9 m/s 756 mmHg 54%
    16:00 +12°C° 0 mm 10 m/s 757 mmHg 54%
    17:00 +11°C° 0 mm 10 m/s 757 mmHg 54%
    18:00 +11°C° 0 mm 9 m/s 758 mmHg 55%
    19:00 +10°C° 0 mm 9 m/s 759 mmHg 55%
    20:00 +10°C° 0 mm 9 m/s 760 mmHg 58%
    21:00 +8°C° 0 mm 9 m/s 760 mmHg 60%
    22:00 +8°C° 0 mm 9 m/s 761 mmHg 63%
    23:00 +7°C° 0 mm 8 m/s 761 mmHg 63%

    11 Decembrie, Miercuri

    Timp Temperatura Precipitaţii Vânt Presiune Umiditate
    00:00 +8°C° 0 mm 7 m/s 762 mmHg 63%
    01:00 +8°C° 0 mm 7 m/s 762 mmHg 64%
    02:00 +7°C° 0 mm 6 m/s 762 mmHg 64%
    03:00 +7°C° 0 mm 5 m/s 762 mmHg 64%
    04:00 +7°C° 0 mm 4 m/s 762 mmHg 64%
    05:00 +6°C° 0 mm 4 m/s 762 mmHg 64%
    06:00 +6°C° 0 mm 4 m/s 762 mmHg 63%
    07:00 +6°C° 0 mm 4 m/s 762 mmHg 63%
    08:00 +6°C° 0 mm 4 m/s 762 mmHg 60%
    09:00 +7°C° 0 mm 4 m/s 762 mmHg 58%
    10:00 +9°C° 0 mm 3 m/s 762 mmHg 55%
    11:00 +9°C° 0 mm 3 m/s 762 mmHg 51%
    12:00 +10°C° 0 mm 3 m/s 761 mmHg 47%
    13:00 +12°C° 0 mm 2 m/s 760 mmHg 42%
    14:00 +12°C° 0 mm 2 m/s 760 mmHg 44%
    15:00 +11°C° 0 mm 3 m/s 760 mmHg 46%
    16:00 +11°C° 0 mm 3 m/s 759 mmHg 47%
    17:00 +10°C° 0 mm 2 m/s 759 mmHg 48%
    18:00 +10°C° 0 mm 2 m/s 759 mmHg 50%
    19:00 +11°C° 0 mm 1 m/s 759 mmHg 51%
    20:00 +10°C° 0 mm 2 m/s 759 mmHg 51%
    21:00 +10°C° 0 mm 3 m/s 759 mmHg 52%
    22:00 +10°C° 0 mm 3 m/s 759 mmHg 53%
    23:00 +10°C° 0.2 mm 4 m/s 758 mmHg 56%
    Arată mai mult